Home > Weather > Foz do Iguaçu > Past weeks

Flag for Brazil Past Weather in Foz do Iguaçu, Paraná, Brazil — Yesterday and Last 2 Weeks

Now
75 °F

Sunny.


Feels Like: 78 °F
Forecast: 55 / 75 °F
Wind: 12 mph from North

Location: Foz Do Iguacu Aeroporto

Current Time: Jul 23, 2016 at 4:24:20 PM

Latest Report: Jul 23, 2016 at 4:00 PM


Visibility: 10 mi

Pressure: 29.98 "Hg

Humidity: 50%

Dew Point: 55 °F

Location of Foz do IguaçuLocation

Past Weather in Foz do Iguaçu — Graph

°F

Foz do Iguaçu Temperature Yesterday

Maximum temperature yesterday: 75 °F (at 3:00 PM)
Minimum temperature yesterday: 41 °F (at 6:00 AM)
Average temperature yesterday: 57 °F

High & Low Weather Summary for the Past Weeks

 TemperatureHumidityPressure
High88 °F (Jul 11, 3:00 PM)100% (Jul 12, 9:00 PM)30.30 "Hg (Jul 12, 9:00 PM)
Low36 °F (Jul 17, 7:00 AM)33% (Jul 11, 3:00 PM)29.74 "Hg (Jul 11, 3:00 PM)
Average61 °F79%30.01 "Hg
* Reported Jul 8 3:00 PM — Jul 23 3:00 PM, Foz do Iguaçu, Weather by CustomWeather, © 2016

Note: Actual official high and low records may vary slightly from our data, if they occured in-between our weather recording intervals... More about our weather records

Advertising

Foz do Iguaçu Weather History for the Previous 24 Hours

Scroll right to see more
 ConditionsComfort  
Time TempWeatherWind HumidityBarometerVisibility
3:00 PM
Sat, Jul 23
75 °FSunny.12 mph50%30.01 "Hg10 mi
2:00 PM77 °FSunny.12 mph44%30.01 "Hg10 mi
1:00 PM73 °FSunny.8 mph53%30.04 "Hg10 mi
12:00 PM70 °FSunny.6 mph60%30.09 "Hg10 mi
11:00 AM66 °FSunny.7 mph64%30.09 "Hg10 mi
10:00 AM61 °FSunny.8 mph83%30.09 "Hg10 mi
9:00 AM57 °FSunny.9 mph94%30.09 "Hg10 mi
8:00 AM55 °FSunny.8 mph94%30.07 "Hg10 mi
7:00 AM54 °FSunny.7 mph94%30.04 "Hg10 mi
6:00 AM54 °FClear.7 mph94%30.04 "Hg10 mi
5:00 AM54 °FClear.5 mph100%30.04 "Hg10 mi
4:00 AM54 °FClear.5 mph100%30.04 "Hg10 mi
3:00 AM54 °FClear.6 mph100%30.04 "Hg10 mi
2:00 AM55 °FClear.6 mph94%30.07 "Hg10 mi
1:00 AM57 °FClear.3 mph88%30.07 "Hg10 mi
12:00 AM57 °FClear.3 mph88%30.07 "Hg10 mi
11:00 PM
Fri, Jul 22
54 °FClear.3 mph94%30.07 "Hg10 mi
10:00 PM57 °FClear.5 mph82%30.07 "Hg10 mi
9:00 PM57 °FClear.3 mph82%30.04 "Hg10 mi
8:00 PM63 °FClear.3 mph68%30.07 "Hg10 mi
7:00 PM64 °FClear.5 mph64%30.04 "Hg10 mi
6:00 PM68 °FClear.3 mph60%30.04 "Hg10 mi
5:00 PM73 °FSunny.8 mph44%30.04 "Hg10 mi
4:00 PM75 °FSunny.9 mph41%30.04 "Hg10 mi
Weather by CustomWeather, © 2016

See weather overviewHow to use our weather pages